STARLINK-30355, 57777

Orbit data source: Space-Track

STARLINK-30355, 57777 is a payload satellite owned by SpaceX/Seattle (US) in LEO that was launched on Mon, 04 Sep 2023 UTC via an FALCON 9 launch vehicle from the Air Force Eastern Test Range (AFETR). Payload-class satellites include a variety of spacecraft equipped with specific instruments for various scientific and technological missions. These include communications satellites like Starlink; space stations such as the ISS; scientific satellites like the Hubble; Earth observation satellites from companies like Planet Labs, Umbra, and HawkEye 360; GPS; miniature CubeSats for education and research; and military/defense satellites.

Loading next visibility...
Identifier
57777, 2023-134G
Orbit
LEO
Country
Flag of USUS
Related business
Manufacturer
SpaceX/Seattle
Mission
Operational Commercial Communications
Bus & Motor
STARLINK V2M, Unknown motor
Mass
730 kg wet, ~700 kg dry
Launch date (UTC)
2023-09-04 (2 years ago)
Launch vehicle
FALCON 9
Launch site
Air Force Eastern Test Range (AFETR)
Object type
Payload
Rocket body
Debris
Shape & HBR
Box + 2 Pan, 17.7 m
Radar Cross Section
33.884 m², Large (>1 m²)

Expand to show TLE details & history
Last TLE update: 8 hours ago

TLE from 8 hours ago
0 STARLINK-30355
1 57777U 23134G   25346.96122758 -.00002350  00000-0 -15898-3 0  9992
2 57777  43.0051 308.8631 0001262 271.6446  88.4252 15.02526695126412
Epoch: 2025-12-12T23:04Z
TLE epoch observation values (Epoch: 2025-12-12T23:04:10.062Z)
Latitude
-0.00003°
Longitude
-119.07419°
Altitude
558.863 km
Speed
7.584 km/s
True Right ascension
20h 35m 27s
True Declination
0° 00' 00"
Sunlit
Object was in daylight at epoch
Visualization orbit readout
Latitude
Unknown
Longitude
Unknown
Altitude
Unknown
Speed
Unknown
Apparent Right ascension
Unknown
Apparent Declination
Unknown
Sunlit
N/A
Visualization observer readout
Local Sidereal Time
05:21:54
Azimuth
Unknown
Elevation
Unknown
Doppler factor
Unknown
Orbital elements
Apogee altitude
561.907 km
Perigee altitude
560.156 km
Semi-major axis
6,939.168 km
Eccentricity
0.00013
Inclination
43.0051°
RAAN
308.8631°
Arg. of periapsis
271.6446°
True anomaly
88.43966°
Mean anomaly
88.4252°
Eccentric anomaly
88.43243°
Mean motion
3.75476 °/min
Orbital period
95.88 mins
BSTAR
-0.00015898
Loading maneuver chart data...
Computing Atmospheric mass density...
Loading historical data...
Loading historical data...
Loading historical data...
Loading historical data...
Loading historical data...
Loading historical data...
Loading historical data...

Documentation

Showing up to 5 results
|